H1 CPF 2 NER 2021 5 9 9 129 01 glonass134 H2 1407501 9134 40315 2021 5 9 0 0 0 2021 5 12 23 45 0 900 1 1 0 0 0 1 H9 10 0 59343 0.00000 0 22058177.130 12787069.990 1619065.330 10 0 59343 900.00000 0 21754407.526 12518711.504 4772648.580 10 0 59343 1800.00000 0 21079643.641 12126167.267 7833956.352 10 0 59343 2700.00000 0 20031353.562 11664295.442 10743809.472 10 0 59343 3600.00000 0 18619839.677 11188467.571 13445947.229 10 0 59343 4500.00000 0 16867991.267 10752065.955 15888100.923 10 0 59343 5400.00000 0 14810529.081 10404077.048 18022992.538 10 0 59343 6300.00000 0 12492771.710 10186881.141 19809240.452 10 0 59343 7200.00000 0 9968973.272 10134330.501 21212155.611 10 0 59343 8100.00000 0 7300299.231 10270196.444 22204413.535 10 0 59343 9000.00000 0 4552521.965 10607050.886 22766589.497 10 0 59343 9900.00000 0 1793529.427 11145630.215 22887546.362 10 0 59343 10800.00000 0 -909251.983 11874709.758 22564666.960 10 0 59343 11700.00000 0 -3491415.225 12771496.145 21803925.410 10 0 59343 12600.00000 0 -5894006.138 13802523.472 20619794.431 10 0 59343 13500.00000 0 -8065732.321 14925018.146 19034988.612 10 0 59343 14400.00000 0 -9964855.614 16088677.387 17080046.529 10 0 59343 15300.00000 0 -11560688.859 17237788.539 14792757.835 10 0 59343 16200.00000 0 -12834633.701 18313601.318 12217444.596 10 0 59343 17100.00000 0 -13780715.085 19256853.608 9404109.361 10 0 59343 18000.00000 0 -14405589.031 20010343.982 6407465.698 10 0 59343 18900.00000 0 -14728022.733 20521441.309 3285869.752 10 0 59343 19800.00000 0 -14777868.627 20744423.669 100174.008 10 0 59343 20700.00000 0 -14594576.001 20642545.525 -3087473.272 10 0 59343 21600.00000 0 -14225304.005 20189743.371 -6214858.011 10 0 59343 22500.00000 0 -13722717.380 19371905.395 -9220933.758 10 0 59343 23400.00000 0 -13142560.167 18187649.526 -12047032.379 10 0 59343 24300.00000 0 -12541112.425 16648575.508 -14638026.332 10 0 59343 25200.00000 0 -11972639.914 14778979.449 -16943418.103 10 0 59343 26100.00000 0 -11486946.792 12615042.669 -18918334.071 10 0 59343 27000.00000 0 -11127136.562 10203529.238 -20524402.626 10 0 59343 27900.00000 0 -10927676.999 7600047.578 -21730499.188 10 0 59343 28800.00000 0 -10912851.262 4866949.965 -22513343.854 10 0 59343 29700.00000 0 -11095660.289 2070958.722 -22857940.916 10 0 59343 30600.00000 0 -11477221.934 -719381.103 -22757852.956 10 0 59343 31500.00000 0 -12046690.835 -3436315.922 -22215305.633 10 0 59343 32400.00000 0 -12781700.804 -6015456.072 -21241122.849 10 0 59343 33300.00000 0 -13649309.430 -8398200.336 -19854495.124 10 0 59343 34200.00000 0 -14607403.583 -10533913.046 -18082587.244 10 0 59343 35100.00000 0 -15606505.390 -12381765.281 -15959994.078 10 0 59343 36000.00000 0 -16591901.870 -13912166.030 -13528056.143 10 0 59343 36900.00000 0 -17506008.186 -15107726.447 -10834048.950 10 0 59343 37800.00000 0 -18290865.209 -15963719.935 -7930262.264 10 0 59343 38700.00000 0 -18890666.839 -16488021.700 -4872987.170 10 0 59343 39600.00000 0 -19254211.621 -16700532.774 -1721430.480 10 0 59343 40500.00000 0 -19337176.642 -16632114.778 1463422.991 10 0 59343 41400.00000 0 -19104119.239 -16323081.578 4619978.991 10 0 59343 42300.00000 0 -18530123.424 -15821311.973 7687211.437 10 0 59343 43200.00000 0 -17602022.657 -15180062.937 10605827.451 10 0 59343 44100.00000 0 -16319147.966 -14455574.907 13319398.509 10 0 59343 45000.00000 0 -14693569.884 -13704568.945 15775437.100 10 0 59343 45900.00000 0 -12749823.253 -12981739.835 17926399.416 10 0 59343 46800.00000 0 -10524124.933 -12337349.238 19730595.926 10 0 59343 47700.00000 0 -8063115.122 -11815018.907 21152993.213 10 0 59343 48600.00000 0 -5422172.308 -11449815.857 22165892.339 10 0 59343 49500.00000 0 -2663369.212 -11266709.522 22749470.985 10 0 59343 50400.00000 0 146847.980 -11279465.940 22892178.734 10 0 59343 51300.00000 0 2940163.346 -11490026.220 22590977.284 10 0 59343 52200.00000 0 5648976.287 -11888396.835 21851419.821 10 0 59343 53100.00000 0 8208962.188 -12453058.195 20687566.487 10 0 59343 54000.00000 0 10561503.502 -13151876.483 19121735.746 10 0 59343 54900.00000 0 12655890.585 -13943482.564 17184094.356 10 0 59343 55800.00000 0 14451200.386 -14779061.850 14912091.936 10 0 59343 56700.00000 0 15917773.965 -15604481.176 12349749.212 10 0 59343 57600.00000 0 17038230.062 -16362663.789 9546812.303 10 0 59343 58500.00000 0 17807971.106 -16996112.190 6557788.580 10 0 59343 59400.00000 0 18235159.442 -17449471.453 3440882.587 10 0 59343 60300.00000 0 18340164.164 -17672023.124 256853.042 10 0 59343 61200.00000 0 18154501.689 -17620002.084 -2932185.685 10 0 59343 62100.00000 0 17719315.320 -17258635.942 -6063992.744 10 0 59343 63000.00000 0 17083459.108 -16563818.123 -9077434.762 10 0 59343 63900.00000 0 16301268.716 -15523341.613 -11913698.312 10 0 59343 64800.00000 0 15430115.611 -14137639.248 -14517455.223 10 0 59343 65700.00000 0 14527850.223 -12419997.921 -16837956.193 10 0 59343 66600.00000 0 13650244.355 -10396236.959 -18830029.883 10 0 59343 67500.00000 0 12848542.723 -8103864.007 -20454967.171 10 0 59343 68400.00000 0 12167228.334 -5590744.237 -21681273.060 10 0 59343 69300.00000 0 11642096.609 -2913339.375 -22485271.823 10 0 59343 70200.00000 0 11298719.383 -134591.116 -22851554.452 10 0 59343 71100.00000 0 11151362.695 2678461.991 -22773260.940 10 0 59343 72000.00000 0 11202402.550 5457234.151 -22252193.372 10 0 59343 72900.00000 0 11442261.460 8134202.198 -21298759.311 10 0 59343 73800.00000 0 11849866.383 10645467.575 -19931748.175 10 0 59343 74700.00000 0 12393606.783 12933164.810 -18177946.522 10 0 59343 75600.00000 0 13032750.648 14947617.920 -16071600.990 10 0 59343 76500.00000 0 13719257.415 16649157.164 -13653740.357 10 0 59343 77400.00000 0 14399910.473 18009522.879 -10971370.654 10 0 59343 78300.00000 0 15018678.996 19012800.626 -8076559.347 10 0 59343 79200.00000 0 15519209.678 19655851.365 -5025426.461 10 0 59343 80100.00000 0 15847343.927 19948221.160 -1877062.056 10 0 59343 81000.00000 0 15953555.334 19911536.460 1307609.413 10 0 59343 81900.00000 0 15795205.797 19578411.964 4466996.612 10 0 59343 82800.00000 0 15338526.378 18990917.945 7540018.942 10 0 59343 83700.00000 0 14560240.420 18198671.811 10467272.602 10 0 59343 84600.00000 0 13448761.196 17256633.805 13192163.829 10 0 59343 85500.00000 0 12004913.842 16222698.705 15661988.608 10 0 59344 0.00000 0 10242150.784 15155183.439 17828939.316 10 0 59344 900.00000 0 8186249.901 14110314.931 19651020.318 10 0 59344 1800.00000 0 5874507.453 13139821.574 21092855.224 10 0 59344 2700.00000 0 3354455.202 12288729.378 22126371.714 10 0 59344 3600.00000 0 682154.053 11593452.897 22731350.610 10 0 59344 4500.00000 0 -2079868.629 11080261.742 22895828.549 10 0 59344 5400.00000 0 -4864954.859 10764186.671 22616345.987 10 0 59344 6300.00000 0 -7604830.706 10648412.044 21898034.590 10 0 59344 7200.00000 0 -10232197.416 10724181.467 20754540.831 10 0 59344 8100.00000 0 -12683292.835 10971222.197 19207785.434 10 0 59344 9000.00000 0 -14900317.475 11358672.332 17287561.248 10 0 59344 9900.00000 0 -16833624.168 11846473.508 15030975.330 10 0 59344 10800.00000 0 -18443579.546 12387171.886 12481744.206 10 0 59344 11700.00000 0 -19702018.520 12928052.392 9689354.455 10 0 59344 12600.00000 0 -20593229.591 13413516.301 6708104.032 10 0 59344 13500.00000 0 -21114428.359 13787601.151 3596042.619 10 0 59344 14400.00000 0 -21275698.337 13996535.076 413831.956 10 0 59344 15300.00000 0 -21099400.851 13991215.527 -2776450.585 10 0 59344 16200.00000 0 -20619078.964 13729505.038 -5912540.345 10 0 59344 17100.00000 0 -19877902.256 13178244.228 -8933219.803 10 0 59344 18000.00000 0 -18926719.422 12314894.331 -11779532.803 10 0 59344 18900.00000 0 -17821802.684 11128737.509 -14395952.831 10 0 59344 19800.00000 0 -16622381.386 9621582.413 -16731480.761 10 0 59344 20700.00000 0 -15388071.010 7807944.107 -18740649.115 10 0 59344 21600.00000 0 -14176308.085 5714690.113 -20384412.423 10 0 59344 22500.00000 0 -13039900.573 3380167.436 -21630905.991 10 0 59344 23400.00000 0 -12024797.901 852847.657 -22456058.542 10 0 59344 24300.00000 0 -11168174.594 -1810452.515 -22844047.600 10 0 59344 25200.00000 0 -10496907.553 -4546700.106 -22787589.981 10 0 59344 26100.00000 0 -10026509.667 -7289034.610 -22288063.204 10 0 59344 27000.00000 0 -9760562.718 -9969316.712 -21355457.124 10 0 59344 27900.00000 0 -9690671.146 -12520731.015 -20008158.364 10 0 59344 28800.00000 0 -9796936.218 -14880334.964 -18272573.272 10 0 59344 29700.00000 0 -10048928.329 -16991449.132 -16182598.045 10 0 59344 30600.00000 0 -10407114.461 -18805791.065 -13778947.361 10 0 59344 31500.00000 0 -10824679.125 -20285265.855 -11108355.323 10 0 59344 32400.00000 0 -11249660.998 -21403341.236 -8222664.655 10 0 59344 33300.00000 0 -11627314.731 -22145952.352 -5177821.905 10 0 59344 34200.00000 0 -11902598.436 -22511900.790 -2032798.045 10 0 59344 35100.00000 0 -12022682.465 -22512733.447 1151545.083 10 0 59344 36000.00000 0 -11939374.562 -22172108.051 4313621.243 10 0 59344 36900.00000 0 -11611360.136 -21524673.192 7392297.436 10 0 59344 37800.00000 0 -11006164.233 -20614510.432 10328061.012 10 0 59344 38700.00000 0 -10101753.275 -19493203.833 13064154.970 10 0 59344 39600.00000 0 -8887709.530 -18217617.284 15547660.708 10 0 59344 40500.00000 0 -7365928.687 -16847471.744 17730508.658 10 0 59344 41400.00000 0 -5550810.309 -15442822.552 19570398.537 10 0 59344 42300.00000 0 -3468931.655 -14061540.959 21031612.421 10 0 59344 43200.00000 0 -1158216.226 -12756903.879 22085705.743 10 0 59344 44100.00000 0 1333370.989 -11575391.430 22712063.272 10 0 59344 45000.00000 0 3949550.162 -10554783.686 22898309.206 10 0 59344 45900.00000 0 6627806.412 -9722635.889 22640562.942 10 0 59344 46800.00000 0 9301739.171 -9095196.189 21943534.506 10 0 59344 47700.00000 0 11903585.901 -8676811.980 20820456.281 10 0 59344 48600.00000 0 14366817.147 -8459850.918 19292850.536 10 0 59344 49500.00000 0 16628696.175 -8425141.331 17390135.187 10 0 59344 50400.00000 0 18632696.923 -8542915.061 15149073.395 10 0 59344 51300.00000 0 20330679.117 -8774214.363 12613075.812 10 0 59344 52200.00000 0 21684728.759 -9072704.505 9831367.448 10 0 59344 53100.00000 0 22668585.553 -9386815.943 6858034.446 10 0 59344 54000.00000 0 23268595.924 -9662125.208 3750968.898 10 0 59344 54900.00000 0 23484150.161 -9843872.718 570732.560 10 0 59344 55800.00000 0 23327584.193 -9879509.211 -2620637.395 10 0 59344 56700.00000 0 22823549.556 -9721160.669 -5760855.778 10 0 59344 57600.00000 0 22007878.204 -9327904.741 -8788624.168 10 0 59344 58500.00000 0 20925990.804 -8667759.629 -11644846.767 10 0 59344 59400.00000 0 19630917.014 -7719298.752 -14273801.570 10 0 59344 60300.00000 0 18181013.039 -6472820.804 -16624242.180 10 0 59344 61200.00000 0 16637474.746 -4931024.241 -18650407.201 10 0 59344 62100.00000 0 15061753.061 -3109156.768 -20312916.670 10 0 59344 63000.00000 0 13512982.118 -1034633.117 -21579537.682 10 0 59344 63900.00000 0 12045529.493 1253862.649 -22425804.495 10 0 59344 64800.00000 0 10706771.900 3707752.175 -22835481.845 10 0 59344 65700.00000 0 9535189.390 6270357.006 -22800863.635 10 0 59344 66600.00000 0 8558856.976 8879036.175 -22322902.653 10 0 59344 67500.00000 0 7794395.143 11467577.484 -21411170.485 10 0 59344 68400.00000 0 7246420.935 13968742.656 -20083649.984 10 0 59344 69300.00000 0 6907520.077 16316860.479 -18366365.937 10 0 59344 70200.00000 0 6758738.527 18450360.724 -16292862.390 10 0 59344 71100.00000 0 6770570.269 20314144.584 -13903537.868 10 0 59344 72000.00000 0 6904397.595 21861694.449 -11244852.176 10 0 59344 72900.00000 0 7114321.538 23056837.117 -8368420.634 10 0 59344 73800.00000 0 7349304.252 23875089.121 -5330013.412 10 0 59344 74700.00000 0 7555532.536 24304530.143 -2188479.309 10 0 59344 75600.00000 0 7678902.908 24346170.189 995385.646 10 0 59344 76500.00000 0 7667523.924 24013796.902 4160003.528 10 0 59344 77400.00000 0 7474131.038 23333310.766 7244192.076 10 0 59344 78300.00000 0 7058313.121 22341576.794 10188332.783 10 0 59344 79200.00000 0 6388457.630 21084840.977 12935508.186 10 0 59344 80100.00000 0 5443333.090 19616777.349 15432587.613 10 0 59344 81000.00000 0 4213242.397 17996246.497 17631241.740 10 0 59344 81900.00000 0 2700697.921 16284857.883 19488867.640 10 0 59344 82800.00000 0 920588.904 14544436.360 20969407.436 10 0 59344 83700.00000 0 -1100167.777 12834497.066 22044045.579 10 0 59344 84600.00000 0 -3323481.404 11209832.618 22691771.699 10 0 59344 85500.00000 0 -5701413.005 9718312.197 22899798.056 10 0 59345 0.00000 0 -8177920.586 8398983.553 22663823.070 10 0 59345 900.00000 0 -10690954.678 7280557.127 21988134.655 10 0 59345 1800.00000 0 -13174819.157 6380335.245 20885550.167 10 0 59345 2700.00000 0 -15562701.961 5703633.203 19377191.905 10 0 59345 3600.00000 0 -17789271.647 5243715.933 17492100.820 10 0 59345 4500.00000 0 -19793232.195 4982255.381 15266693.650 10 0 59345 5400.00000 0 -21519729.589 4890289.979 12744072.236 10 0 59345 6300.00000 0 -22922508.781 4929646.878 9973196.767 10 0 59345 7200.00000 0 -23965729.362 5054767.465 7007938.126 10 0 59345 8100.00000 0 -24625362.178 5214858.894 3906027.287 10 0 59345 9000.00000 0 -24890106.489 5356279.845 727922.492 10 0 59345 9900.00000 0 -24761787.489 5425058.016 -2464382.703 10 0 59345 10800.00000 0 -24255216.400 5369430.640 -5608585.855 10 0 59345 11700.00000 0 -23397518.439 5142297.881 -8643310.713 10 0 59345 12600.00000 0 -22226957.211 4703482.521 -11509324.667 10 0 59345 13500.00000 0 -20791305.896 4021697.598 -14150712.766 10 0 59345 14400.00000 0 -19145835.266 3076136.427 -16515983.529 10 0 59345 15300.00000 0 -17351005.064 1857615.928 -18559083.412 10 0 59345 16200.00000 0 -15469957.787 369223.727 -20240299.237 10 0 59345 17100.00000 0 -13565921.904 -1373558.978 -21527030.635 10 0 59345 18000.00000 0 -11699634.990 -3343264.011 -22394417.593 10 0 59345 18900.00000 0 -9926895.556 -5501354.906 -22825811.693 10 0 59345 19800.00000 0 -8296346.164 -7799618.586 -22813083.034 10 0 59345 20700.00000 0 -6847579.946 -10181970.982 -22356758.318 10 0 59345 21600.00000 0 -5609648.187 -12586600.492 -21465989.078 10 0 59345 22500.00000 0 -4600029.264 -14948359.354 -20158352.285 10 0 59345 23400.00000 0 -3824099.471 -17201303.021 -18459488.783 10 0 59345 24300.00000 0 -3275124.965 -19281272.015 -16402587.904 10 0 59345 25200.00000 0 -2934772.228 -21128409.433 -14027729.357 10 0 59345 26100.00000 0 -2774112.959 -22689510.311 -11381095.968 10 0 59345 27000.00000 0 -2755078.822 -23920106.467 -8514073.020 10 0 59345 27900.00000 0 -2832303.158 -24786201.698 -5482251.781 10 0 59345 28800.00000 0 -2955270.976 -25265586.752 -2344356.495 10 0 59345 29700.00000 0 -3070686.182 -25348681.084 838884.846 10 0 59345 30600.00000 0 -3124956.294 -25038867.888 4005904.713 10 0 59345 31500.00000 0 -3066690.454 -24352309.699 7095473.531 10 0 59345 32400.00000 0 -2849106.167 -23317253.140 10047868.764 10 0 59345 33300.00000 0 -2432244.196 -21972852.171 12806014.214 10 0 59345 34200.00000 0 -1784899.090 -20367558.744 15316568.745 10 0 59345 35100.00000 0 -886184.425 -18557147.296 17530944.751 10 0 59345 36000.00000 0 273333.156 -16602454.258 19406237.964 10 0 59345 36900.00000 0 1690979.468 -14566925.324 20906051.655 10 0 59345 37800.00000 0 3351826.805 -12514070.998 22001200.159 10 0 59345 38700.00000 0 5229064.687 -10504934.689 22670278.573 10 0 59345 39600.00000 0 7284874.459 -8595677.385 22900087.568 10 0 59345 40500.00000 0 9471774.252 -6835378.314 22685904.629 10 0 59345 41400.00000 0 11734381.355 -5264142.538 22031595.452 10 0 59345 42300.00000 0 14011521.409 -3911594.240 20949561.887 10 0 59345 43200.00000 0 16238599.125 -2795818.883 19460525.612 10 0 59345 44100.00000 0 18350133.598 -1922799.145 17593149.680 10 0 59345 45000.00000 0 20282353.534 -1286369.274 15383503.235 10 0 59345 45900.00000 0 21975744.328 -868690.780 12874377.832 10 0 59345 46800.00000 0 23377439.957 -641230.363 10114467.080 10 0 59345 47700.00000 0 24443358.239 -566199.500 7157424.512 10 0 59345 48600.00000 0 25139988.216 -598394.958 4060817.583 10 0 59345 49500.00000 0 25445752.607 -687361.887 884998.357 10 0 59345 50400.00000 0 25351886.086 -779786.748 -2308086.130 10 0 59345 51300.00000 0 24862790.808 -822016.879 -5456119.191 10 0 59345 52200.00000 0 23995853.071 -762597.620 -8497649.781 10 0 59345 53100.00000 0 22780728.416 -554716.890 -11373311.418 10 0 59345 54000.00000 0 21258125.506 -158451.011 -14026998.958 10 0 59345 54900.00000 0 19478140.891 457285.792 -16406978.337 10 0 59345 55800.00000 0 17498216.147 1313172.717 -18466906.078 10 0 59345 56700.00000 0 15380804.920 2418362.360 -20166737.715 10 0 59345 57600.00000 0 13190849.521 3769857.540 -21473507.031 10 0 59345 58500.00000 0 10993174.389 5352411.527 -22361961.056 10 0 59345 59400.00000 0 8849906.583 7138955.691 -22815039.216 10 0 59345 60300.00000 0 6818031.536 9091536.077 -22824188.467 10 0 59345 61200.00000 0 4947185.897 11162718.800 -22389509.712 10 0 59345 62100.00000 0 3277778.452 13297404.605 -21519734.332 10 0 59345 63000.00000 0 1839515.653 15434976.049 -20232032.901 10 0 59345 63900.00000 0 650390.934 17511687.061 -18551661.382 10 0 59345 64800.00000 0 -283822.926 19463195.125 -16511453.049 10 0 59345 65700.00000 0 -969560.243 21227130.683 -14151167.048 10 0 59345 66600.00000 0 -1424931.209 22745597.290 -11516707.106 10 0 59345 67500.00000 0 -1678698.102 23967499.294 -8659226.017 10 0 59345 68400.00000 0 -1768804.166 24850601.354 -5634133.413 10 0 59345 69300.00000 0 -1740518.687 25363235.303 -2500026.012 10 0 59345 70200.00000 0 -1644277.370 25485584.735 682439.335 10 0 59345 71100.00000 0 -1533309.386 25210495.125 3851708.681 10 0 59345 72000.00000 0 -1461150.883 24543776.891 6946508.325 10 0 59345 72900.00000 0 -1479149.195 23503989.549 9907014.801 10 0 59345 73800.00000 0 -1634062.112 22121716.308 12675996.138 10 0 59345 74700.00000 0 -1965852.484 20438359.207 15199903.498 10 0 59345 75600.00000 0 -2505770.342 18504504.301 17429893.530 10 0 59345 76500.00000 0 -3274802.965 16377923.803 19322762.910 10 0 59345 77400.00000 0 -4282558.243 14121296.834 20841778.058 10 0 59345 78300.00000 0 -5526629.182 11799741.776 21957384.892 10 0 59345 79200.00000 0 -6992467.776 9478260.973 22647785.331 10 0 59345 80100.00000 0 -8653775.757 7219202.283 22899369.417 10 0 59345 81000.00000 0 -10473398.572 5079841.534 22706994.229 10 0 59345 81900.00000 0 -12404688.272 3110185.271 22074103.224 10 0 59345 82800.00000 0 -14393281.294 1351084.773 21012682.232 10 0 59345 83700.00000 0 -16379219.679 -167260.245 19543051.183 10 0 59345 84600.00000 0 -18299329.404 -1426345.435 17693493.542 10 0 59345 85500.00000 0 -20089757.864 -2419908.691 15499728.585 10 0 59346 0.00000 0 -21688565.154 -3153956.362 13004234.895 10 0 59346 900.00000 0 -23038260.294 -3646266.708 10255436.195 10 0 59346 1800.00000 0 -24088175.640 -3925391.099 7306765.248 10 0 59346 2700.00000 0 -24796576.974 -4029194.221 4215622.304 10 0 59346 3600.00000 0 -25132420.072 -4002995.959 1042249.474 10 0 59346 4500.00000 0 -25076676.421 -3897393.878 -2151456.478 10 0 59346 5400.00000 0 -24623170.819 -3765860.338 -5303168.296 10 0 59346 6300.00000 0 -23778893.717 -3662218.024 -8351363.637 10 0 59346 7200.00000 0 -22563774.110 -3638103.342 -11236545.445 10 0 59346 8100.00000 0 -21009922.180 -3740527.760 -13902421.387 10 0 59346 9000.00000 0 -19160373.820 -4009642.889 -16297017.476 10 0 59346 9900.00000 0 -17067390.868 -4476806.098 -18373702.511 10 0 59346 10800.00000 0 -14790389.707 -5163030.141 -20092102.423 10 0 59346 11700.00000 0 -12393586.712 -6077883.402 -21418886.233 10 0 59346 12600.00000 0 -9943460.672 -7218887.619 -22328408.450 10 0 59346 13500.00000 0 -7506139.493 -8571438.339 -22803196.127 10 0 59346 14400.00000 0 -5144820.974 -10109250.951 -22834272.220 10 0 59346 15300.00000 0 -2917335.353 -11795312.645 -22421310.407 10 0 59346 16200.00000 0 -873950.428 -13583299.401 -21572620.003 10 0 59346 17100.00000 0 944490.770 -15419397.704 -20304962.873 10 0 59346 18000.00000 0 2508024.257 -17244453.920 -18643207.495 10 0 59346 18900.00000 0 3798553.417 -18996360.990 -16619828.264 10 0 59346 19800.00000 0 4810333.185 -20612582.573 -14274260.813 10 0 59346 20700.00000 0 5549932.928 -22032709.447 -11652126.766 10 0 59346 21600.00000 0 6035682.658 -23200942.100 -8804343.437 10 0 59346 22500.00000 0 6296628.440 -24068396.760 -5786135.915 10 0 59346 23400.00000 0 6371042.957 -24595139.671 -2655970.619 10 0 59346 24300.00000 0 6304555.411 -24751865.962 525569.390 10 0 59346 25200.00000 0 6147980.289 -24521154.365 3696946.190 10 0 59346 26100.00000 0 5954936.600 -23898246.305 6796844.194 10 0 59346 27000.00000 0 5779357.576 -22891317.668 9765341.038 10 0 59346 27900.00000 0 5672995.043 -21521232.183 12545050.771 10 0 59346 28800.00000 0 5683022.674 -19820786.564 15082218.426 10 0 59346 29700.00000 0 5849838.140 -17833478.195 17327746.220 10 0 59346 30600.00000 0 6205156.015 -15611845.385 19238132.815 10 0 59346 31500.00000 0 6770471.356 -13215447.728 20776308.552 10 0 59346 32400.00000 0 7555958.863 -10708568.526 21912351.399 10 0 59346 33300.00000 0 8559854.821 -8157732.649 22624070.284 10 0 59346 34200.00000 0 9768349.389 -5629140.926 22897444.519 10 0 59346 35100.00000 0 11155995.983 -3186125.738 22726910.427 10 0 59346 36000.00000 0 12686623.310 -886731.993 22115488.626 10 0 59346 36900.00000 0 14314714.685 1218476.879 21074748.124 10 0 59346 37800.00000 0 15987199.709 3088297.136 19624606.111 10 0 59346 38700.00000 0 17645585.785 4692368.846 17792965.285 10 0 59346 39600.00000 0 19228342.016 6012203.414 15615193.712 10 0 59346 40500.00000 0 20673436.690 7041710.782 13133455.337 10 0 59346 41400.00000 0 21920922.173 7787203.344 10395902.501 10 0 59346 42300.00000 0 22915457.956 8266875.571 7455745.122 10 0 59346 43200.00000 0 23608664.443 8509780.817 4370214.085 10 0 59346 44100.00000 0 23961206.439 8554348.482 1199439.185 10 0 59346 45000.00000 0 23944516.274 8446504.743 -1994735.599 10 0 59346 45900.00000 0 23542081.625 8237477.621 -5149975.040 10 0 59346 46800.00000 0 22750241.647 7981381.100 -8204688.115 10 0 59346 47700.00000 0 21578456.213 7732682.887 -11099249.715 10 0 59346 48600.00000 0 20049035.946 7543665.571 -13777182.700 10 0 59346 49500.00000 0 18196344.051 7461991.220 -16186275.328 10 0 59346 50400.00000 0 16065503.930 7528474.764 -18279610.636 10 0 59346 51300.00000 0 13710667.746 7775162.181 -20016486.677 10 0 59346 52200.00000 0 11192919.741 8223795.961 -21363209.237 10 0 59346 53100.00000 0 8577903.552 8884733.221 -22293741.619 10 0 59346 54000.00000 0 5933273.866 9756362.070 -22790199.601 10 0 59346 54900.00000 0 3326079.657 10825040.251 -22843183.000 10 0 59346 55800.00000 0 820188.440 12065557.659 -22451938.838 10 0 59346 56700.00000 0 -1526141.541 13442102.114 -21624354.586 10 0 59346 57600.00000 0 -3662441.267 14909686.646 -20376783.239 10 0 59346 58500.00000 0 -5547874.007 16415977.295 -18733705.208 10 0 59346 59400.00000 0 -7152667.164 17903443.957 -16727234.998 10 0 59346 60300.00000 0 -8459076.139 19311743.734 -14396483.323 10 0 59346 61200.00000 0 -9461842.966 20580236.863 -11786787.933 10 0 59346 62100.00000 0 -10168133.732 21650530.181 -8948828.564 10 0 59346 63000.00000 0 -10596960.291 22468942.416 -5937643.365 10 0 59346 63900.00000 0 -10778112.923 22988788.932 -2811565.849 10 0 59346 64800.00000 0 -10750650.715 23172391.463 368897.455 10 0 59346 65700.00000 0 -10561014.380 22992729.845 3542227.522 10 0 59346 66600.00000 0 -10260841.481 22434667.686 6647069.809 10 0 59346 67500.00000 0 -9904575.973 21495701.446 9623406.006 10 0 59346 68400.00000 0 -9546972.230 20186201.900 12413699.097 10 0 59346 69300.00000 0 -9240597.720 18529137.783 14963990.826 10 0 59346 70200.00000 0 -9033438.459 16559292.478 17224931.704 10 0 59346 71100.00000 0 -8966707.018 14322005.091 19152724.954 10 0 59346 72000.00000 0 -9072944.570 11871486.670 20709967.204 10 0 59346 72900.00000 0 -9374496.505 9268779.485 21866370.600 10 0 59346 73800.00000 0 -9882425.990 6579441.797 22599352.900 10 0 59346 74700.00000 0 -10595912.053 3871052.008 22894484.149 10 0 59346 75600.00000 0 -11502159.075 1210633.541 22745780.942 10 0 59346 76500.00000 0 -12576823.661 -1337894.551 22155841.615 10 0 59346 77400.00000 0 -13784943.483 -3716136.665 21135818.363 10 0 59346 78300.00000 0 -15082331.779 -5873409.784 19705225.063 10 0 59346 79200.00000 0 -16417381.528 -7768611.815 17891582.493 10 0 59346 80100.00000 0 -17733205.616 -9371690.936 15729905.763 10 0 59346 81000.00000 0 -18970024.572 -10664653.944 13262041.958 10 0 59346 81900.00000 0 -20067702.165 -11642070.531 10535869.163 10 0 59346 82800.00000 0 -20968321.909 -12311051.361 7604371.360 10 0 59346 83700.00000 0 -21618694.936 -12690700.222 4524606.621 10 0 59346 84600.00000 0 -21972691.807 -12811062.993 1356588.784 10 0 59346 85500.00000 0 -21993297.583 -12711618.016 -1837894.714 99